Weather History for KAQV - October, 2012

Change the Weather History Date:

Wednesday, October 31, 2012

  Actual Average (KPOE) Record (KPOE)
Temperature  
Mean Temperature 62 °F -  
Max Temperature 79 °F 71 °F 84 °F (2003)
Min Temperature 46 °F 51 °F 41 °F (2011)
Degree Days  
Heating Degree Days 2    
Growing Degree Days 12 (Base 50)    
Moisture  
Dew Point 54 °F    
Average Humidity 78    
Maximum Humidity 100    
Minimum Humidity 44    
Precipitation  
Precipitation 0.00 in - - ()
Sea Level Pressure  
Sea Level Pressure 29.99 in    
Wind  
Wind Speed 2 mph (SW)    
Max Wind Speed 9 mph    
Max Gust Speed 23 mph    
Visibility 8 miles    
Events      
Averages and records for this station are not official NWS values.
T = Trace of Precipitation, MM = Missing Value Source: NWS Daily Summary

Daily Weather History Graph

Daily Weather History Graph

Search for Another Location

Airport or City:

Trip Planner

Search our weather history database for the weather conditions in past years. The results will help you decide how hot, cold, wet, or windy it might be!

Date:

Astronomy

Oct. 31, 2012 Rise Set
Actual Time 7:28 AM CDT 6:24 PM CDT
Civil Twilight 7:03 AM CDT 6:49 PM CDT
Nautical Twilight 6:34 AM CDT 7:18 PM CDT
Astronomical Twilight 6:06 AM CDT 7:46 PM CDT
Moon 7:43 PM CDT (10/31) 9:03 AM CDT (10/31)
Length of Visible Light 11h 46m
Length of Day
10h 55m
Full, 97% of the Moon is Illuminated
Oct 31
Full
Nov 6
Last Quarter
Nov 13
New
Nov 20
First Quarter
Nov 28
Full

Hourly Weather History & Observations

Time (CDT) Temp. Dew Point Humidity Pressure Visibility Wind Dir Wind Speed Gust Speed Precip Events Conditions
12:56 AM 53.1 °F 46.9 °F 80% 30.01 in 10.0 mi Calm Calm - N/A   Partly Cloudy
1:56 AM 46.9 °F 45.0 °F 93% 30.01 in 10.0 mi Calm Calm - N/A   Partly Cloudy
2:56 AM 46.9 °F 45.0 °F 93% 30.01 in 10.0 mi Calm Calm - N/A   Clear
3:56 AM 51.1 °F 48.0 °F 89% 29.99 in 10.0 mi Calm Calm - N/A   Clear
4:56 AM 48.0 °F 46.9 °F 96% 29.99 in 8.0 mi Calm Calm - N/A   Clear
5:56 AM 51.1 °F 48.9 °F 92% 30.00 in 10.0 mi Calm Calm - N/A   Clear
6:56 AM 51.1 °F 48.9 °F 92% 30.01 in 7.0 mi Calm Calm - N/A   Clear
7:56 AM 52.0 °F 50.0 °F 93% 30.01 in 6.0 mi Calm Calm - N/A   Clear
8:56 AM 62.1 °F 55.9 °F 80% 30.03 in 10.0 mi Variable 4.6 mph - N/A   Clear
9:56 AM 66.9 °F 57.0 °F 70% 30.03 in 10.0 mi WSW 8.1 mph - N/A   Clear
10:56 AM 73.0 °F 59.0 °F 61% 30.03 in 10.0 mi Variable 5.8 mph - N/A   Clear
11:56 AM 73.9 °F 57.0 °F 55% 30.01 in 10.0 mi SW 9.2 mph 23.0 mph N/A   Clear
12:56 PM 78.1 °F 57.0 °F 48% 29.98 in 10.0 mi SW 8.1 mph - N/A   Clear
1:56 PM 79.0 °F 57.0 °F 47% 29.95 in 10.0 mi Variable 6.9 mph - N/A   Scattered Clouds
2:56 PM 79.0 °F 55.9 °F 45% 29.94 in 10.0 mi WSW 8.1 mph 17.3 mph N/A   Clear
3:56 PM 79.0 °F 55.0 °F 44% 29.92 in 10.0 mi Variable 6.9 mph 16.1 mph N/A   Clear
4:56 PM 79.0 °F 55.9 °F 45% 29.93 in 10.0 mi Variable 4.6 mph - N/A   Partly Cloudy
5:56 PM 75.0 °F 57.9 °F 55% 29.94 in 10.0 mi Calm Calm - N/A   Clear
6:42 PM 68.0 °F 59.0 °F 73% 29.94 in 2.0 mi Calm Calm - N/A   Haze
6:52 PM 66.2 °F 57.2 °F 73% 29.94 in 4.0 mi Calm Calm - N/A   Haze
6:56 PM 66.0 °F 57.9 °F 75% 29.94 in 6.0 mi Calm Calm - N/A   Haze
7:56 PM 62.1 °F 59.0 °F 90% 29.97 in 5.0 mi Calm Calm - N/A   Clear
8:56 PM 60.1 °F 57.0 °F 90% 29.99 in 10.0 mi Calm Calm - N/A   Clear
9:56 PM 59.0 °F 57.0 °F 93% 29.99 in 10.0 mi Calm Calm - N/A   Clear
10:56 PM 57.0 °F 55.0 °F 93% 30.00 in 7.0 mi Calm Calm - N/A   Clear
11:11 PM 55.4 °F 55.4 °F 100% 30.01 in 2.5 mi Calm Calm - N/A   Clear
11:19 PM 55.4 °F 55.4 °F 100% 30.01 in 3.0 mi Calm Calm - N/A   Clear
11:34 PM 55.4 °F 53.6 °F 94% 30.01 in 2.0 mi Calm Calm - N/A   Clear
11:56 PM 54.0 °F 53.1 °F 97% 30.00 in 3.0 mi Calm Calm - N/A   Clear